[[{"header":{"parameterUnit":"m.s-1","parameterCategory":1,"la1":30.2991,"la2":30.254,"lo1":-89.0895,"lo2":-89.0444,"dy":0.0017,"dx":0.0017,"nx":28,"ny":28,"refTime":"2026-02-26T09:00:00:Z","depth":0,"parameterNumber":2,"parameterNumberName":"U-component_of_WINDS"},"data":[0,0,0,0,0,0,0,0,0,0,0,0,0,0,0,0,0,0,0,0,0,0,0,0,0,0,0,0,0,0,0,0,0,0,0,0,0,0,0,0,0,0,0,0,0,0,0,0,0,0,0,0,0,0,0,0,0,0,0.3872,0.3872,0,0.3915,0.3916,0.3916,0.3927,0.3927,0.3927,0.3926,0.3974,0.3976,0.3977,0,0,0,0,0,0,0,0,0,0,0,0,0,0.3802,0.3803,0.3872,0.3872,0.3873,0.3915,0.3916,0.3916,0.3927,0.3927,0.3926,0.3926,0.3974,0.3976,0.3977,0,0,0,0,0,0,0,0,0,0,0,0,0,0.3837,0.3803,0.3872,0.3883,0.3885,0.3915,0.3916,0.3916,0.3927,0.3927,0.3926,0.3926,0.3973,0.3975,0.3978,0.4001,0,0,0.3985,0.3986,0,0,0,0,0,0,0,0,0.3835,0.384,0.3881,0.3882,0.3884,0.3915,0.3909,0.3945,0.3927,0.3911,0.3926,0.3926,0.3955,0.3959,0.3968,0.4003,0.4005,0.3985,0.3986,0.3987,0.3988,0,0,0,0,0,0,0,0.3833,0.3838,0.3889,0.3882,0.3884,0.3887,0.3892,0.3915,0.3935,0.3913,0.3913,0.3918,0.3956,0.3966,0.3969,0.4006,0.3985,0.3987,0.3988,0.3989,0.4062,0.4063,0,0,0,0,0,0,0.3828,0.3836,0.3888,0.389,0.3858,0.3889,0.3894,0.3906,0.3935,0.3939,0.3919,0.3919,0.3962,0.3967,0.3971,0.4,0.3987,0.399,0.3991,0.4062,0.4062,0.4063,0,0,0,0,0,0,0.3826,0.3832,0.3886,0.3863,0.387,0.3891,0.3904,0.3907,0.3917,0.3939,0.3943,0.3925,0.3962,0.3968,0.3993,0.4002,0.3991,0.3993,0.4061,0.4062,0.4063,0.4059,0,0,0,0,0,0,0.3824,0.3832,0.384,0.3863,0.3872,0.3906,0.3904,0.3908,0.392,0.3921,0.3946,0.395,0.3962,0.399,0.3995,0.4005,0.3995,0.406,0.4061,0.4062,0.4058,0.4059,0.406,0,0,0,0,0,0.3822,0.3837,0.384,0.3846,0.3882,0.3906,0.3911,0.3924,0.3921,0.393,0.3944,0.3949,0.4,0.3992,0.3999,0.4009,0.406,0.4061,0.4062,0.4058,0.4059,0.406,0,0,0,0,0,0,0.3815,0.3841,0.3844,0.3867,0.3885,0.3908,0.392,0.3925,0.3944,0.3943,0.3959,0.3965,0.3989,0.4002,0.3992,0.4033,0.403,0.4033,0.4024,0.4026,0.4027,0.4024,0.3996,0,0,0,0,0,0.3816,0.3833,0.3855,0.3874,0.3882,0.3899,0.391,0.3918,0.3937,0.3945,0.3961,0.3981,0.4001,0.4014,0.4034,0.406,0.4066,0.407,0.4072,0.4072,0.4075,0.409,0.4093,0.4067,0.4067,0.4067,0,0,0.3819,0.3835,0.3845,0.3873,0.3887,0.3905,0.3905,0.3924,0.3938,0.3948,0.3973,0.3986,0.4008,0.4034,0.4046,0.4045,0.4083,0.4074,0.4074,0.4076,0.4092,0.4094,0.4096,0.4068,0.4068,0.4067,0,0,0.3834,0.3847,0.3865,0.3879,0.39,0.3911,0.3915,0.3938,0.3947,0.3972,0.398,0.3997,0.4031,0.4047,0.406,0.4081,0.4087,0.4087,0.4093,0.4108,0.411,0.4112,0.412,0.4123,0.4089,0.4089,0.4089,0,0.3835,0.3862,0.3873,0.3892,0.3904,0.3913,0.3931,0.3945,0.3972,0.3981,0.3979,0.4023,0.4038,0.4069,0.4074,0.4083,0.409,0.4084,0.4108,0.4111,0.4113,0.4121,0.4124,0.4089,0.4089,0.4089,0.4089,0,0.3862,0.3881,0.3893,0.3917,0.3931,0.395,0.3965,0.3978,0.3985,0.3997,0.4023,0.4042,0.4066,0.4074,0.4081,0.4105,0.4104,0.4105,0.4102,0.4115,0.4123,0.4126,0.4089,0.4089,0.4089,0.4089,0,0,0.3874,0.3905,0.3909,0.3921,0.3945,0.396,0.398,0.4002,0.4014,0.4032,0.405,0.4079,0.408,0.4094,0.4103,0.4116,0.4133,0.4116,0.4117,0.4119,0.4162,0.4161,0.4164,0.4136,0.4137,0.4138,0.416,0,0.3892,0.3926,0.3937,0.3966,0.3984,0.3992,0.401,0.4027,0.4039,0.4057,0.407,0.4091,0.409,0.4099,0.4112,0.4128,0.4142,0.4126,0.4154,0.4155,0.4149,0.4169,0.4168,0.4188,0.4163,0.4164,0.4164,0,0.3918,0.3936,0.3966,0.3988,0.3996,0.4011,0.4033,0.405,0.407,0.4078,0.4094,0.4102,0.4124,0.4119,0.4151,0.414,0.4152,0.4162,0.4163,0.4166,0.4161,0.4173,0.4195,0.4198,0.4169,0.4169,0.4168,0,0.3924,0.3956,0.3978,0.3988,0.4015,0.4025,0.4037,0.4057,0.407,0.409,0.4098,0.4121,0.4133,0.4151,0.4166,0.4161,0.4196,0.4192,0.4204,0.4204,0.4212,0.4211,0.4236,0.4218,0.4218,0.4218,0.4218,0,0.3944,0.3962,0.3982,0.3996,0.4017,0.403,0.4051,0.4064,0.4081,0.4098,0.4108,0.4124,0.4142,0.4161,0.4173,0.4197,0.4203,0.4211,0.4214,0.421,0.4209,0.4219,0.4218,0.4219,0.4219,0.4219,0.4218,0,0.3955,0.3968,0.3993,0.4016,0.4023,0.4037,0.4058,0.4072,0.4084,0.4106,0.4112,0.4132,0.4155,0.4171,0.42,0.4208,0.4235,0.4238,0.4228,0.423,0.4241,0.424,0.4274,0.4279,0.4257,0.4257,0.4257,0,0.3966,0.398,0.4005,0.4017,0.4028,0.4047,0.406,0.4074,0.4088,0.4112,0.4124,0.4147,0.4167,0.4203,0.4221,0.4244,0.4248,0.4258,0.4251,0.4248,0.4249,0.4248,0.425,0.4259,0.4259,0.426,0.426,0,0.3986,0.3992,0.401,0.4031,0.4046,0.4064,0.4081,0.4091,0.4108,0.4123,0.4146,0.4161,0.4191,0.4215,0.424,0.4253,0.426,0.4261,0.4266,0.4262,0.4257,0.4261,0.4232,0.4261,0.4261,0.4261,0.4261,0.426,0.3998,0.4011,0.403,0.4051,0.4065,0.4082,0.4096,0.411,0.4129,0.4154,0.4162,0.4186,0.4207,0.4241,0.4255,0.4275,0.4274,0.428,0.4281,0.4283,0.4283,0.4253,0.4279,0.4279,0.4279,0.4279,0.4279,0,0.4019,0.4031,0.405,0.4074,0.409,0.4094,0.4113,0.4127,0.4148,0.4166,0.4185,0.4212,0.4235,0.4255,0.4279,0.4291,0.4295,0.4297,0.4297,0.43,0.4282,0.4276,0.4294,0.4294,0.4294,0.4294,0.4294,0.4293,0.4031,0.4054,0.4063,0.4093,0.4106,0.4129,0.414,0.4156,0.4171,0.42,0.4219,0.4231,0.4251,0.4276,0.4298,0.4303,0.4312,0.4313,0.432,0.4303,0.4301,0.4299,0.4294,0.4315,0.4315,0.4336,0.4336,0.4336]},{"header":{"parameterUnit":"m.s-1","parameterCategory":1,"la1":30.2991,"la2":30.254,"lo1":-89.0895,"lo2":-89.0444,"dy":0.0017,"dx":0.0017,"nx":28,"ny":28,"refTime":"2026-02-26T09:00:00:Z","depth":0,"parameterNumber":3,"parameterNumberName":"V-component_of_WINDS"},"data":[0,0,0,0,0,0,0,0,0,0,0,0,0,0,0,0,0,0,0,0,0,0,0,0,0,0,0,0,0,0,0,0,0,0,0,0,0,0,0,0,0,0,0,0,0,0,0,0,0,0,0,0,0,0,0,0,0,0,3.6722,3.6722,0,3.6759,3.6759,3.676,3.6744,3.6743,3.6743,3.6742,3.6778,3.6779,3.6781,0,0,0,0,0,0,0,0,0,0,0,0,0,3.6636,3.6638,3.6722,3.6722,3.6723,3.6759,3.6759,3.676,3.6745,3.6743,3.6742,3.6741,3.6777,3.6779,3.6781,0,0,0,0,0,0,0,0,0,0,0,0,0,3.6673,3.6639,3.6722,3.672,3.672,3.6759,3.6759,3.676,3.6745,3.6743,3.6742,3.6741,3.6776,3.6779,3.6782,3.6824,0,0,3.679,3.6791,0,0,0,0,0,0,0,0,3.6671,3.6677,3.6719,3.672,3.672,3.6746,3.6742,3.6781,3.6745,3.6735,3.6742,3.674,3.6768,3.6771,3.6781,3.6826,3.6827,3.679,3.6791,3.6793,3.6793,0,0,0,0,0,0,0,3.6669,3.6675,3.6736,3.672,3.672,3.6716,3.672,3.6749,3.6758,3.6736,3.6735,3.674,3.6768,3.6778,3.6782,3.6828,3.679,3.6792,3.6794,3.6795,3.691,3.6912,0,0,0,0,0,0,3.6666,3.6673,3.6735,3.6737,3.6692,3.6719,3.6723,3.6739,3.6758,3.676,3.6741,3.6739,3.6774,3.6779,3.6783,3.6835,3.6793,3.6795,3.6797,3.6909,3.6911,3.6912,0,0,0,0,0,0,3.6665,3.6672,3.6734,3.6705,3.6712,3.6722,3.6739,3.674,3.6751,3.6762,3.6763,3.675,3.6774,3.6779,3.6814,3.6836,3.6796,3.6799,3.6907,3.6909,3.6911,3.6939,0,0,0,0,0,0,3.6662,3.6672,3.6688,3.6705,3.6714,3.6765,3.6741,3.6742,3.6756,3.6753,3.6771,3.6772,3.6773,3.681,3.6817,3.6839,3.6801,3.6905,3.6908,3.6911,3.6936,3.6942,3.6947,0,0,0,0,0,3.6659,3.6694,3.6689,3.6697,3.6735,3.6766,3.6771,3.6772,3.6757,3.6774,3.6781,3.6772,3.6832,3.6814,3.6821,3.6844,3.6904,3.6907,3.691,3.6934,3.6941,3.6947,0,0,0,0,0,0,3.6678,3.6696,3.6691,3.6732,3.6748,3.6764,3.6785,3.6779,3.6799,3.6796,3.6795,3.6799,3.6836,3.6843,3.6823,3.6887,3.6866,3.6871,3.6881,3.6888,3.6893,3.6891,3.6803,0,0,0,0,0,3.6687,3.6712,3.6726,3.6761,3.6769,3.6776,3.6789,3.6788,3.6804,3.6811,3.682,3.6836,3.6858,3.6873,3.6894,3.6937,3.6941,3.6956,3.6961,3.6966,3.697,3.6994,3.7002,3.6923,3.6923,3.6923,0,0,3.6706,3.6719,3.6734,3.6765,3.6777,3.6802,3.6781,3.6808,3.6827,3.6815,3.6849,3.6857,3.6874,3.6913,3.6931,3.692,3.6993,3.697,3.6973,3.6976,3.6998,3.7006,3.7012,3.6925,3.6925,3.6925,0,0,3.6754,3.6765,3.6797,3.6809,3.6828,3.6833,3.684,3.6857,3.6862,3.6896,3.6888,3.6909,3.6948,3.6961,3.6972,3.7025,3.7018,3.7032,3.706,3.7083,3.709,3.7095,3.7115,3.7122,3.7036,3.7036,3.7036,0,3.6775,3.6813,3.6813,3.6842,3.6856,3.6846,3.6878,3.689,3.6914,3.6924,3.6912,3.6961,3.6971,3.7014,3.7027,3.7036,3.7045,3.7031,3.7089,3.7094,3.7099,3.7118,3.7126,3.7038,3.7038,3.7038,3.7037,0,3.6838,3.6865,3.6888,3.6913,3.6929,3.6959,3.6963,3.698,3.6977,3.6983,3.7018,3.7031,3.7055,3.7065,3.7062,3.7107,3.7101,3.7089,3.7068,3.7109,3.7127,3.7134,3.704,3.704,3.7039,3.7039,0,0,3.69,3.6925,3.6934,3.6945,3.6966,3.6986,3.7015,3.7039,3.7054,3.7071,3.7096,3.7129,3.7118,3.7131,3.713,3.715,3.7193,3.7136,3.7136,3.7147,3.7245,3.7255,3.7263,3.7188,3.7189,3.719,3.7244,0,3.695,3.7003,3.7004,3.7052,3.7077,3.7068,3.7093,3.7108,3.7114,3.7136,3.7141,3.7165,3.7149,3.7157,3.7177,3.7184,3.7213,3.718,3.7211,3.7212,3.7209,3.7273,3.7283,3.7333,3.7251,3.7252,3.7253,0,3.7016,3.7037,3.7088,3.7105,3.7115,3.7139,3.7161,3.7182,3.7199,3.7201,3.7216,3.7212,3.7242,3.7219,3.726,3.7237,3.725,3.7255,3.7257,3.7262,3.7236,3.728,3.7349,3.7358,3.7264,3.7263,3.7262,0,3.7058,3.7097,3.7134,3.7144,3.7164,3.7181,3.719,3.7206,3.7221,3.724,3.725,3.7272,3.7285,3.7302,3.7304,3.7287,3.7346,3.7322,3.7349,3.7349,3.7363,3.7362,3.7437,3.7369,3.7369,3.7368,3.7368,0,3.7115,3.7146,3.7153,3.7175,3.721,3.7211,3.7246,3.7253,3.7267,3.7291,3.7283,3.7305,3.7306,3.7328,3.733,3.7364,3.7369,3.7373,3.7373,3.7374,3.7374,3.7384,3.7381,3.737,3.737,3.737,3.7369,0,3.7168,3.7173,3.7212,3.7229,3.7234,3.7259,3.7273,3.7294,3.7299,3.7329,3.7336,3.7343,3.737,3.7373,3.7403,3.7404,3.7446,3.7441,3.7441,3.7441,3.7468,3.7466,3.7552,3.7564,3.7487,3.7487,3.7488,0,3.7204,3.7229,3.7249,3.7264,3.7275,3.73,3.7315,3.7316,3.7333,3.7354,3.7373,3.7398,3.7419,3.7461,3.7469,3.7492,3.7489,3.7517,3.7492,3.7493,3.7491,3.749,3.7493,3.7523,3.7524,3.7524,3.7525,0,3.727,3.7271,3.7294,3.7319,3.7338,3.7356,3.7374,3.7387,3.739,3.7409,3.7436,3.7452,3.7483,3.7509,3.7532,3.754,3.7534,3.7533,3.754,3.7543,3.7542,3.7544,3.7456,3.7531,3.753,3.753,3.753,3.7529,3.7317,3.7339,3.7356,3.7382,3.7396,3.7413,3.7434,3.7442,3.7465,3.7491,3.749,3.752,3.7536,3.7566,3.7577,3.76,3.7591,3.7601,3.7604,3.7607,3.7611,3.7537,3.7604,3.7604,3.7604,3.7603,3.7603,0,3.7383,3.7394,3.7418,3.7444,3.7464,3.7456,3.7475,3.7493,3.752,3.7536,3.7557,3.7588,3.7613,3.7623,3.7647,3.7664,3.7661,3.767,3.767,3.7672,3.7617,3.7609,3.7672,3.7672,3.7672,3.7672,3.7672,3.7672,3.742,3.7457,3.7461,3.7504,3.7515,3.7545,3.7557,3.7573,3.7586,3.7621,3.7642,3.7649,3.7663,3.7688,3.771,3.7713,3.7723,3.7733,3.7734,3.7683,3.7676,3.767,3.7662,3.7735,3.7735,3.7788,3.7788,3.7789]}]]